Year,Month,Day,Hour,Minute,Value (Times are PST for temperature in C)
2012,01,25,00,00,7.40
2012,01,25,00,01,7.50
2012,01,25,00,02,7.50
2012,01,25,00,03,7.50
2012,01,25,00,04,7.60
2012,01,25,00,05,7.60
2012,01,25,00,06,7.60
2012,01,25,00,07,7.60
2012,01,25,00,08,7.60
2012,01,25,00,09,7.50
2012,01,25,00,10,7.40
2012,01,25,00,11,7.30
2012,01,25,00,12,7.20
2012,01,25,00,13,7.10
2012,01,25,00,14,7.10
2012,01,25,00,15,7.00
2012,01,25,00,16,6.90
2012,01,25,00,17,6.90
2012,01,25,00,18,6.80
2012,01,25,00,19,6.80
2012,01,25,00,20,6.80
2012,01,25,00,21,6.90
2012,01,25,00,22,6.90
2012,01,25,00,23,7.00
2012,01,25,00,24,7.00
2012,01,25,00,25,7.00
2012,01,25,00,26,7.10
2012,01,25,00,27,7.10
2012,01,25,00,28,7.10
2012,01,25,00,29,7.10
2012,01,25,00,30,7.10
2012,01,25,00,31,7.10
2012,01,25,00,32,7.10
2012,01,25,00,33,7.10
2012,01,25,00,34,7.20
2012,01,25,00,35,7.20
2012,01,25,00,36,7.20
2012,01,25,00,37,7.30
2012,01,25,00,38,7.30
2012,01,25,00,39,7.40
2012,01,25,00,40,7.50
2012,01,25,00,41,7.50
2012,01,25,00,42,7.50
2012,01,25,00,43,7.50
2012,01,25,00,44,7.50
2012,01,25,00,45,7.60
2012,01,25,00,46,7.60
2012,01,25,00,47,7.60
2012,01,25,00,48,7.70
2012,01,25,00,49,7.70
2012,01,25,00,50,7.70
2012,01,25,00,51,7.70
2012,01,25,00,52,7.70
2012,01,25,00,53,7.70
2012,01,25,00,54,7.70
2012,01,25,00,55,7.70
2012,01,25,00,56,7.70
2012,01,25,00,57,7.70
2012,01,25,00,58,7.60
2012,01,25,00,59,7.60
2012,01,25,01,00,7.50
2012,01,25,01,01,7.50
2012,01,25,01,02,7.50
2012,01,25,01,03,7.40
2012,01,25,01,04,7.40
2012,01,25,01,05,7.40
2012,01,25,01,06,7.40
2012,01,25,01,07,7.30
2012,01,25,01,08,7.30
2012,01,25,01,09,7.30
2012,01,25,01,10,7.30
2012,01,25,01,11,7.30
2012,01,25,01,12,7.30
2012,01,25,01,13,7.30
2012,01,25,01,14,7.30
2012,01,25,01,15,7.30
2012,01,25,01,16,7.30
2012,01,25,01,17,7.30
2012,01,25,01,18,7.30
2012,01,25,01,19,7.30
2012,01,25,01,20,7.30
2012,01,25,01,21,7.30
2012,01,25,01,22,7.40
2012,01,25,01,23,7.40
2012,01,25,01,24,7.40
2012,01,25,01,25,7.30
2012,01,25,01,26,7.30
2012,01,25,01,27,7.30
2012,01,25,01,28,7.30
2012,01,25,01,29,7.30
2012,01,25,01,30,7.20
2012,01,25,01,31,7.20
2012,01,25,01,32,7.10
2012,01,25,01,33,7.00
2012,01,25,01,34,7.00
2012,01,25,01,35,6.90
2012,01,25,01,36,6.80
2012,01,25,01,37,6.80
2012,01,25,01,38,6.80
2012,01,25,01,39,6.70
2012,01,25,01,40,6.60
2012,01,25,01,41,6.60
2012,01,25,01,42,6.50
2012,01,25,01,43,6.40
2012,01,25,01,44,6.30
2012,01,25,01,45,6.20
2012,01,25,01,46,6.20
2012,01,25,01,47,6.10
2012,01,25,01,48,6.00
2012,01,25,01,49,5.90
2012,01,25,01,50,5.80
2012,01,25,01,51,5.70
2012,01,25,01,52,5.70
2012,01,25,01,53,5.60
2012,01,25,01,54,5.60
2012,01,25,01,55,5.50
2012,01,25,01,56,5.40
2012,01,25,01,57,5.40
2012,01,25,01,58,5.30
2012,01,25,01,59,5.30
2012,01,25,02,00,5.30
2012,01,25,02,01,5.20
2012,01,25,02,02,5.10
2012,01,25,02,03,5.10
2012,01,25,02,04,5.10
2012,01,25,02,05,5.10
2012,01,25,02,06,5.10
2012,01,25,02,07,5.10
2012,01,25,02,08,5.10
2012,01,25,02,09,5.10
2012,01,25,02,10,5.10
2012,01,25,02,11,5.10
2012,01,25,02,12,5.10
2012,01,25,02,13,5.10
2012,01,25,02,14,5.10
2012,01,25,02,15,5.10
2012,01,25,02,16,5.10
2012,01,25,02,17,5.10
2012,01,25,02,18,5.10
2012,01,25,02,19,5.10
2012,01,25,02,20,5.10
2012,01,25,02,21,5.10
2012,01,25,02,22,5.10
2012,01,25,02,23,5.10
2012,01,25,02,24,5.20
2012,01,25,02,25,5.20
2012,01,25,02,26,5.20
2012,01,25,02,27,5.20
2012,01,25,02,28,5.20
2012,01,25,02,29,5.30
2012,01,25,02,30,5.30
2012,01,25,02,31,5.30
2012,01,25,02,32,5.40
2012,01,25,02,33,5.40
2012,01,25,02,34,5.40
2012,01,25,02,35,5.40
2012,01,25,02,36,5.40
2012,01,25,02,37,5.30
2012,01,25,02,38,5.30
2012,01,25,02,39,5.20
2012,01,25,02,40,5.10
2012,01,25,02,41,5.10
2012,01,25,02,42,5.10
2012,01,25,02,43,5.10
2012,01,25,02,44,5.10
2012,01,25,02,45,5.10
2012,01,25,02,46,5.10
2012,01,25,02,47,5.10
2012,01,25,02,48,5.10
2012,01,25,02,49,5.10
2012,01,25,02,50,5.20
2012,01,25,02,51,5.20
2012,01,25,02,52,5.30
2012,01,25,02,53,5.30
2012,01,25,02,54,5.30
2012,01,25,02,55,5.30
2012,01,25,02,56,5.30
2012,01,25,02,57,5.30
2012,01,25,02,58,5.30
2012,01,25,02,59,5.40
2012,01,25,03,00,5.40
2012,01,25,03,01,5.40
2012,01,25,03,02,5.40
2012,01,25,03,03,5.40
2012,01,25,03,04,5.40
2012,01,25,03,05,5.50
2012,01,25,03,06,5.50
2012,01,25,03,07,5.50
2012,01,25,03,08,5.60
2012,01,25,03,09,5.60
2012,01,25,03,10,5.70
2012,01,25,03,11,5.70
2012,01,25,03,12,5.70
2012,01,25,03,13,5.70
2012,01,25,03,14,5.70
2012,01,25,03,15,5.70
2012,01,25,03,16,5.70
2012,01,25,03,17,5.70
2012,01,25,03,18,5.70
2012,01,25,03,19,5.70
2012,01,25,03,20,5.70
2012,01,25,03,21,5.70
2012,01,25,03,22,5.70
2012,01,25,03,23,5.70
2012,01,25,03,24,5.70
2012,01,25,03,25,5.70
2012,01,25,03,26,5.70
2012,01,25,03,27,5.70
2012,01,25,03,28,5.70
2012,01,25,03,29,5.70
2012,01,25,03,30,5.70
2012,01,25,03,31,5.60
2012,01,25,03,32,5.60
2012,01,25,03,33,5.60
2012,01,25,03,34,5.60
2012,01,25,03,35,5.60
2012,01,25,03,36,5.60
2012,01,25,03,37,5.60
2012,01,25,03,38,5.60
2012,01,25,03,39,5.60
2012,01,25,03,40,5.70
2012,01,25,03,41,5.70
2012,01,25,03,42,5.70
2012,01,25,03,43,5.70
2012,01,25,03,44,5.70
2012,01,25,03,45,5.70
2012,01,25,03,46,5.70
2012,01,25,03,47,5.70
2012,01,25,03,48,5.70
2012,01,25,03,49,5.80
2012,01,25,03,50,5.80
2012,01,25,03,51,5.80
2012,01,25,03,52,5.80
2012,01,25,03,53,5.90
2012,01,25,03,54,5.90
2012,01,25,03,55,5.90
2012,01,25,03,56,6.00
2012,01,25,03,57,6.00
2012,01,25,03,58,6.00
2012,01,25,03,59,6.10
2012,01,25,04,00,6.10
2012,01,25,04,01,6.10
2012,01,25,04,02,6.10
2012,01,25,04,03,6.20
2012,01,25,04,04,6.20
2012,01,25,04,05,6.20
2012,01,25,04,06,6.20
2012,01,25,04,07,6.20
2012,01,25,04,08,6.20
2012,01,25,04,09,6.20
2012,01,25,04,10,6.20
2012,01,25,04,11,6.20
2012,01,25,04,12,6.20
2012,01,25,04,13,6.20
2012,01,25,04,14,6.20
2012,01,25,04,15,6.20
2012,01,25,04,16,6.20
2012,01,25,04,17,6.30
2012,01,25,04,18,6.30
2012,01,25,04,19,6.30
2012,01,25,04,20,6.30
2012,01,25,04,21,6.40
2012,01,25,04,22,6.40
2012,01,25,04,23,6.40
2012,01,25,04,24,6.40
2012,01,25,04,25,6.40
2012,01,25,04,26,6.60
2012,01,25,04,27,6.60
2012,01,25,04,28,6.60
2012,01,25,04,29,6.60
2012,01,25,04,30,6.60
2012,01,25,04,31,6.60
2012,01,25,04,32,6.60
2012,01,25,04,33,6.60
2012,01,25,04,34,6.60
2012,01,25,04,35,6.60
2012,01,25,04,36,6.60
2012,01,25,04,37,6.50
2012,01,25,04,38,6.40
2012,01,25,04,39,6.40
2012,01,25,04,40,6.40
2012,01,25,04,41,6.40
2012,01,25,04,42,6.40
2012,01,25,04,43,6.30
2012,01,25,04,44,6.30
2012,01,25,04,45,6.30
2012,01,25,04,46,6.30
2012,01,25,04,47,6.30
2012,01,25,04,48,6.30
2012,01,25,04,49,6.30
2012,01,25,04,50,6.30
2012,01,25,04,51,6.30
2012,01,25,04,52,6.30
2012,01,25,04,53,6.30
2012,01,25,04,54,6.30
2012,01,25,04,55,6.40
2012,01,25,04,56,6.40
2012,01,25,04,57,6.40
2012,01,25,04,58,6.40
2012,01,25,04,59,6.40
2012,01,25,05,00,6.50
2012,01,25,05,01,6.60
2012,01,25,05,02,6.60
2012,01,25,05,03,6.60
2012,01,25,05,04,6.60
2012,01,25,05,05,6.60
2012,01,25,05,06,6.60
2012,01,25,05,07,6.60
2012,01,25,05,08,6.60
2012,01,25,05,09,6.60
2012,01,25,05,10,6.70
2012,01,25,05,11,6.70
2012,01,25,05,12,6.70
2012,01,25,05,13,6.70
2012,01,25,05,14,6.80
2012,01,25,05,15,6.80
2012,01,25,05,16,6.90
2012,01,25,05,17,6.90
2012,01,25,05,18,7.00
2012,01,25,05,19,7.00
2012,01,25,05,20,7.10
2012,01,25,05,21,7.10
2012,01,25,05,22,7.10
2012,01,25,05,23,7.10
2012,01,25,05,24,7.10
2012,01,25,05,25,7.10
2012,01,25,05,26,7.10
2012,01,25,05,27,7.10
2012,01,25,05,28,7.10
2012,01,25,05,29,7.10
2012,01,25,05,30,7.10
2012,01,25,05,31,7.10
2012,01,25,05,32,7.20
2012,01,25,05,33,7.20
2012,01,25,05,34,7.30
2012,01,25,05,35,7.30
2012,01,25,05,36,7.30
2012,01,25,05,37,7.30
2012,01,25,05,38,7.30
2012,01,25,05,39,7.30
2012,01,25,05,40,7.30
2012,01,25,05,41,7.30
2012,01,25,05,42,7.30
2012,01,25,05,43,7.30
2012,01,25,05,44,7.20
2012,01,25,05,45,7.20
2012,01,25,05,46,7.20
2012,01,25,05,47,7.20
2012,01,25,05,48,7.20
2012,01,25,05,49,7.20
2012,01,25,05,50,7.20
2012,01,25,05,51,7.10
2012,01,25,05,52,7.10
2012,01,25,05,53,7.10
2012,01,25,05,54,7.10
2012,01,25,05,55,7.10
2012,01,25,05,56,7.10
2012,01,25,05,57,7.10
2012,01,25,05,58,7.10
2012,01,25,05,59,7.10
2012,01,25,06,00,7.10
2012,01,25,06,01,7.10
2012,01,25,06,02,7.10
2012,01,25,06,03,7.10
2012,01,25,06,04,7.10
2012,01,25,06,05,7.10
2012,01,25,06,06,7.10
2012,01,25,06,07,7.10
2012,01,25,06,08,7.10
2012,01,25,06,09,7.10
2012,01,25,06,10,7.10
2012,01,25,06,11,7.10
2012,01,25,06,12,7.10
2012,01,25,06,13,7.10
2012,01,25,06,14,7.10
2012,01,25,06,15,7.10
2012,01,25,06,16,7.10
2012,01,25,06,17,7.10
2012,01,25,06,18,7.20
2012,01,25,06,19,7.20
2012,01,25,06,20,7.20
2012,01,25,06,21,7.20
2012,01,25,06,22,7.20
2012,01,25,06,23,7.20
2012,01,25,06,24,7.20
2012,01,25,06,25,7.20
2012,01,25,06,26,7.20
2012,01,25,06,27,7.20
2012,01,25,06,28,7.20
2012,01,25,06,29,7.20
2012,01,25,06,30,7.20
2012,01,25,06,31,7.20
2012,01,25,06,32,7.20
2012,01,25,06,33,7.20
2012,01,25,06,34,7.20
2012,01,25,06,35,7.20
2012,01,25,06,36,7.20
2012,01,25,06,37,7.20
2012,01,25,06,38,7.20
2012,01,25,06,39,7.20
2012,01,25,06,40,7.20
2012,01,25,06,41,7.20
2012,01,25,06,42,7.10
2012,01,25,06,43,7.10
2012,01,25,06,44,7.10
2012,01,25,06,45,7.10
2012,01,25,06,46,7.10
2012,01,25,06,47,7.10
2012,01,25,06,48,7.00
2012,01,25,06,49,7.00
2012,01,25,06,50,7.00
2012,01,25,06,51,7.00
2012,01,25,06,52,6.90
2012,01,25,06,53,6.90
2012,01,25,06,54,6.90
2012,01,25,06,55,6.80
2012,01,25,06,56,6.80
2012,01,25,06,57,6.80
2012,01,25,06,58,6.80
2012,01,25,06,59,6.80
2012,01,25,07,00,6.80
2012,01,25,07,01,6.70
2012,01,25,07,02,6.70
2012,01,25,07,03,6.70
2012,01,25,07,04,6.70
2012,01,25,07,05,6.60
2012,01,25,07,06,6.60
2012,01,25,07,07,6.60
2012,01,25,07,08,6.50
2012,01,25,07,09,6.40
2012,01,25,07,10,6.40
2012,01,25,07,11,6.40
2012,01,25,07,12,6.40
2012,01,25,07,13,6.40
2012,01,25,07,14,6.40
2012,01,25,07,15,6.30
2012,01,25,07,16,6.30
2012,01,25,07,17,6.30
2012,01,25,07,18,6.30
2012,01,25,07,19,6.30
2012,01,25,07,20,6.30
2012,01,25,07,21,6.30
2012,01,25,07,22,6.30
2012,01,25,07,23,6.30
2012,01,25,07,24,6.30
2012,01,25,07,25,6.30
2012,01,25,07,26,6.30
2012,01,25,07,27,6.30
2012,01,25,07,28,6.40
2012,01,25,07,29,6.40
2012,01,25,07,30,6.40
2012,01,25,07,31,6.40
2012,01,25,07,32,6.40
2012,01,25,07,33,6.40
2012,01,25,07,34,6.40
2012,01,25,07,35,6.40
2012,01,25,07,36,6.40
2012,01,25,07,37,6.40
2012,01,25,07,38,6.40
2012,01,25,07,39,6.30
2012,01,25,07,40,6.30
2012,01,25,07,41,6.20
2012,01,25,07,42,6.20
2012,01,25,07,43,6.20
2012,01,25,07,44,6.20
2012,01,25,07,45,6.20
2012,01,25,07,46,6.10
2012,01,25,07,47,6.10
2012,01,25,07,48,6.10
2012,01,25,07,49,6.10
2012,01,25,07,50,6.10
2012,01,25,07,51,6.10
2012,01,25,07,52,6.10
2012,01,25,07,53,6.00
2012,01,25,07,54,6.00
2012,01,25,07,55,6.00
2012,01,25,07,56,6.00
2012,01,25,07,57,6.00
2012,01,25,07,58,6.00
2012,01,25,07,59,6.00
2012,01,25,08,00,6.00
2012,01,25,08,01,6.00
2012,01,25,08,02,6.00
2012,01,25,08,03,5.90
2012,01,25,08,04,5.90
2012,01,25,08,05,5.90
2012,01,25,08,06,5.90
2012,01,25,08,07,5.90
2012,01,25,08,08,5.90
2012,01,25,08,09,5.90
2012,01,25,08,10,5.80
2012,01,25,08,11,5.80
2012,01,25,08,12,5.80
2012,01,25,08,13,5.80
2012,01,25,08,14,5.80
2012,01,25,08,15,5.80
2012,01,25,08,16,5.80
2012,01,25,08,17,5.80
2012,01,25,08,18,5.80
2012,01,25,08,19,5.70
2012,01,25,08,20,5.70
2012,01,25,08,21,5.70
2012,01,25,08,22,5.70
2012,01,25,08,23,5.70
2012,01,25,08,24,5.70
2012,01,25,08,25,5.70
2012,01,25,08,26,5.70
2012,01,25,08,27,5.70
2012,01,25,08,28,5.70
2012,01,25,08,29,5.70
2012,01,25,08,30,5.60
2012,01,25,08,31,5.60
2012,01,25,08,32,5.60
2012,01,25,08,33,5.60
2012,01,25,08,34,5.60
2012,01,25,08,35,5.60
2012,01,25,08,36,5.50
2012,01,25,08,37,5.50
2012,01,25,08,38,5.50
2012,01,25,08,39,5.40
2012,01,25,08,40,5.40
2012,01,25,08,41,5.40
2012,01,25,08,42,5.30
2012,01,25,08,43,5.30
2012,01,25,08,44,5.30
2012,01,25,08,45,5.30
2012,01,25,08,46,5.30
2012,01,25,08,47,5.30
2012,01,25,08,48,5.30
2012,01,25,08,49,5.30
2012,01,25,08,50,5.30
2012,01,25,08,51,5.30
2012,01,25,08,52,5.30
2012,01,25,08,53,5.20
2012,01,25,08,54,5.20
2012,01,25,08,55,5.20
2012,01,25,08,56,5.20
2012,01,25,08,57,5.20
2012,01,25,08,58,5.20
2012,01,25,08,59,5.20
2012,01,25,09,00,5.20
2012,01,25,09,01,5.20
2012,01,25,09,02,5.20
2012,01,25,09,03,5.20
2012,01,25,09,04,5.20
2012,01,25,09,05,5.30
2012,01,25,09,06,5.30
2012,01,25,09,07,5.30
2012,01,25,09,08,5.30
2012,01,25,09,09,5.30
2012,01,25,09,10,5.30
2012,01,25,09,11,5.30
2012,01,25,09,12,5.30
2012,01,25,09,13,5.20
2012,01,25,09,14,5.20
2012,01,25,09,15,5.20
2012,01,25,09,16,5.20
2012,01,25,09,17,5.20
2012,01,25,09,18,5.20
2012,01,25,09,19,5.20
2012,01,25,09,20,5.20
2012,01,25,09,21,5.20
2012,01,25,09,22,5.20
2012,01,25,09,23,5.20
2012,01,25,09,24,5.20
2012,01,25,09,25,5.20
2012,01,25,09,26,5.20
2012,01,25,09,27,5.30
2012,01,25,09,28,5.30
2012,01,25,09,29,5.30
2012,01,25,09,30,5.30
2012,01,25,09,31,5.30
2012,01,25,09,32,5.30
2012,01,25,09,33,5.30
2012,01,25,09,34,5.30
2012,01,25,09,35,5.30
2012,01,25,09,36,5.30
2012,01,25,09,37,5.30
2012,01,25,09,38,5.30
2012,01,25,09,39,5.30
2012,01,25,09,40,5.30
2012,01,25,09,41,5.30
2012,01,25,09,42,5.40
2012,01,25,09,43,5.40
2012,01,25,09,44,5.40
2012,01,25,09,45,5.40
2012,01,25,09,46,5.40
2012,01,25,09,47,5.40
2012,01,25,09,48,5.40
2012,01,25,09,49,5.40
2012,01,25,09,50,5.40
2012,01,25,09,51,5.50
2012,01,25,09,52,5.50
2012,01,25,09,53,5.50
2012,01,25,09,54,5.50
2012,01,25,09,55,5.50
2012,01,25,09,56,5.50
2012,01,25,09,57,5.50
2012,01,25,09,58,5.50
2012,01,25,09,59,5.40
2012,01,25,10,00,5.30
2012,01,25,10,01,5.30
2012,01,25,10,02,5.30
2012,01,25,10,03,5.20
2012,01,25,10,04,5.10
2012,01,25,10,05,5.10
2012,01,25,10,06,5.10
2012,01,25,10,07,5.10
2012,01,25,10,08,5.10
2012,01,25,10,09,4.90
2012,01,25,10,10,4.90
2012,01,25,10,11,4.90
2012,01,25,10,12,4.90
2012,01,25,10,13,4.90
2012,01,25,10,14,4.90
2012,01,25,10,15,4.90
2012,01,25,10,16,4.80
2012,01,25,10,17,4.80
2012,01,25,10,18,4.80
2012,01,25,10,19,4.80
2012,01,25,10,20,4.80
2012,01,25,10,21,4.80
2012,01,25,10,22,4.80
2012,01,25,10,23,4.80
2012,01,25,10,24,4.80
2012,01,25,10,25,4.80
2012,01,25,10,26,4.80
2012,01,25,10,27,4.80
2012,01,25,10,28,4.80
2012,01,25,10,29,4.80
2012,01,25,10,30,4.80
2012,01,25,10,31,4.80
2012,01,25,10,32,4.70
2012,01,25,10,33,4.70
2012,01,25,10,34,4.70
2012,01,25,10,35,4.70
2012,01,25,10,36,4.70
2012,01,25,10,37,4.70
2012,01,25,10,38,4.70
2012,01,25,10,39,4.70
2012,01,25,10,40,4.70
2012,01,25,10,41,4.70
2012,01,25,10,42,4.60
2012,01,25,10,43,4.60
2012,01,25,10,44,4.60
2012,01,25,10,45,4.60
2012,01,25,10,46,4.60
2012,01,25,10,47,4.60
2012,01,25,10,48,4.60
2012,01,25,10,49,4.70
2012,01,25,10,50,4.70
2012,01,25,10,51,4.70
2012,01,25,10,52,4.80
2012,01,25,10,53,4.80
2012,01,25,10,54,4.90
2012,01,25,10,55,4.90
2012,01,25,10,56,4.90
2012,01,25,10,57,4.90
2012,01,25,10,58,5.10
2012,01,25,10,59,5.10
2012,01,25,11,00,5.10
2012,01,25,11,01,5.10
2012,01,25,11,02,5.20
2012,01,25,11,03,5.20
2012,01,25,11,04,5.30
2012,01,25,11,05,5.30
2012,01,25,11,06,5.40
2012,01,25,11,07,5.50
2012,01,25,11,08,5.50
2012,01,25,11,09,5.60
2012,01,25,11,10,5.60
2012,01,25,11,11,5.70
2012,01,25,11,12,5.70
2012,01,25,11,13,5.70
2012,01,25,11,14,5.80
2012,01,25,11,15,5.80
2012,01,25,11,16,5.90
2012,01,25,11,17,5.90
2012,01,25,11,18,5.90
2012,01,25,11,19,6.00
2012,01,25,11,20,6.00
2012,01,25,11,21,6.00
2012,01,25,11,22,6.10
2012,01,25,11,23,6.10
2012,01,25,11,24,6.10
2012,01,25,11,25,6.20
2012,01,25,11,26,6.20
2012,01,25,11,27,6.20
2012,01,25,11,28,6.20
2012,01,25,11,29,6.20
2012,01,25,11,30,6.20
2012,01,25,11,31,6.30
2012,01,25,11,32,6.30
2012,01,25,11,33,6.30
2012,01,25,11,34,6.30
2012,01,25,11,35,6.30
2012,01,25,11,36,6.30
2012,01,25,11,37,6.30
2012,01,25,11,38,6.30
2012,01,25,11,39,6.30
2012,01,25,11,40,6.40
2012,01,25,11,41,6.40
2012,01,25,11,42,6.40
2012,01,25,11,43,6.40
2012,01,25,11,44,6.40
2012,01,25,11,45,6.40
2012,01,25,11,46,6.40
2012,01,25,11,47,6.40
2012,01,25,11,48,6.40
2012,01,25,11,49,6.40
2012,01,25,11,50,6.40
2012,01,25,11,51,6.40
2012,01,25,11,52,6.40
2012,01,25,11,53,6.40
2012,01,25,11,54,6.40
2012,01,25,11,55,6.40
2012,01,25,11,56,6.40
2012,01,25,11,57,6.40
2012,01,25,11,58,6.40
2012,01,25,11,59,6.40
2012,01,25,12,00,6.50
2012,01,25,12,01,6.60
2012,01,25,12,02,6.60
2012,01,25,12,03,6.60
2012,01,25,12,04,6.60
2012,01,25,12,05,6.60
2012,01,25,12,06,6.60
2012,01,25,12,07,6.60
2012,01,25,12,08,6.60
2012,01,25,12,09,6.60
2012,01,25,12,10,6.60
2012,01,25,12,11,6.60
2012,01,25,12,12,6.60
2012,01,25,12,13,6.60
2012,01,25,12,14,6.60
2012,01,25,12,15,6.60
2012,01,25,12,16,6.60
2012,01,25,12,17,6.60
2012,01,25,12,18,6.60
2012,01,25,12,19,6.60
2012,01,25,12,20,6.60
2012,01,25,12,21,6.60
2012,01,25,12,22,6.50
2012,01,25,12,23,6.40
2012,01,25,12,24,6.40
2012,01,25,12,25,6.40
2012,01,25,12,26,6.30
2012,01,25,12,27,6.30
2012,01,25,12,28,6.20
2012,01,25,12,29,6.20
2012,01,25,12,30,6.20
2012,01,25,12,31,6.20
2012,01,25,12,32,6.20
2012,01,25,12,33,6.20
2012,01,25,12,34,6.20
2012,01,25,12,35,6.20
2012,01,25,12,36,6.20
2012,01,25,12,37,6.20
2012,01,25,12,38,6.20
2012,01,25,12,39,6.20
2012,01,25,12,40,6.20
2012,01,25,12,41,6.20
2012,01,25,12,42,6.20
2012,01,25,12,43,6.20
2012,01,25,12,44,6.20
2012,01,25,12,45,6.20
2012,01,25,12,46,6.20
2012,01,25,12,47,6.20
2012,01,25,12,48,6.20
2012,01,25,12,49,6.20
2012,01,25,12,50,6.20
2012,01,25,12,51,6.20
2012,01,25,12,52,6.20
2012,01,25,12,53,6.20
2012,01,25,12,54,6.20
2012,01,25,12,55,6.20
2012,01,25,12,56,6.20
2012,01,25,12,57,6.20
2012,01,25,12,58,6.30
2012,01,25,12,59,6.30
2012,01,25,13,00,6.30
2012,01,25,13,01,6.30
2012,01,25,13,02,6.30
2012,01,25,13,03,6.40
2012,01,25,13,04,6.40
2012,01,25,13,05,6.40
2012,01,25,13,06,6.40
2012,01,25,13,07,6.40
2012,01,25,13,08,6.40
2012,01,25,13,09,6.50
2012,01,25,13,10,6.60
2012,01,25,13,11,6.60
2012,01,25,13,12,6.60
2012,01,25,13,13,6.60
2012,01,25,13,14,6.60
2012,01,25,13,15,6.60
2012,01,25,13,16,6.60
2012,01,25,13,17,6.60
2012,01,25,13,18,6.60
2012,01,25,13,19,6.60
2012,01,25,13,20,6.60
2012,01,25,13,21,6.60
2012,01,25,13,22,6.60
2012,01,25,13,23,6.60
2012,01,25,13,24,6.60
2012,01,25,13,25,6.60
2012,01,25,13,26,6.60
2012,01,25,13,27,6.60
2012,01,25,13,28,6.60
2012,01,25,13,29,6.60
2012,01,25,13,30,6.60
2012,01,25,13,31,6.60
2012,01,25,13,32,6.60
2012,01,25,13,33,6.60
2012,01,25,13,34,6.60
2012,01,25,13,35,6.60
2012,01,25,13,36,6.60
2012,01,25,13,37,6.70
2012,01,25,13,38,6.70
2012,01,25,13,39,6.70
2012,01,25,13,40,6.70
2012,01,25,13,41,6.70
2012,01,25,13,42,6.80
2012,01,25,13,43,6.80
2012,01,25,13,44,6.80
2012,01,25,13,45,6.80
2012,01,25,13,46,6.80
2012,01,25,13,47,6.80
2012,01,25,13,48,6.90
2012,01,25,13,49,6.90
2012,01,25,13,50,6.90
2012,01,25,13,51,7.00
2012,01,25,13,52,7.00
2012,01,25,13,53,7.10
2012,01,25,13,54,7.10
2012,01,25,13,55,7.10
2012,01,25,13,56,7.20
2012,01,25,13,57,7.20
2012,01,25,13,58,7.30
2012,01,25,13,59,7.30
2012,01,25,14,00,7.30
2012,01,25,14,01,7.30
2012,01,25,14,02,7.30
2012,01,25,14,03,7.30
2012,01,25,14,04,7.30
2012,01,25,14,05,7.40
2012,01,25,14,06,7.40
2012,01,25,14,07,7.40
2012,01,25,14,08,7.40
2012,01,25,14,09,7.40
2012,01,25,14,10,7.50
2012,01,25,14,11,7.50
2012,01,25,14,12,7.50
2012,01,25,14,13,7.50
2012,01,25,14,14,7.50
2012,01,25,14,15,7.50
2012,01,25,14,16,7.50
2012,01,25,14,17,7.50
2012,01,25,14,18,7.50
2012,01,25,14,19,7.50
2012,01,25,14,20,7.50
2012,01,25,14,21,7.50
2012,01,25,14,22,7.50
2012,01,25,14,23,7.50
2012,01,25,14,24,7.50
2012,01,25,14,25,7.50
2012,01,25,14,26,7.50
2012,01,25,14,27,7.50
2012,01,25,14,28,7.50
2012,01,25,14,29,7.50
2012,01,25,14,30,7.40
2012,01,25,14,31,7.40
2012,01,25,14,32,7.40
2012,01,25,14,33,7.40
2012,01,25,14,34,7.40
2012,01,25,14,35,7.40
2012,01,25,14,36,7.40
2012,01,25,14,37,7.30
2012,01,25,14,38,7.30
2012,01,25,14,39,7.30
2012,01,25,14,40,7.30
2012,01,25,14,41,7.30
2012,01,25,14,42,7.30
2012,01,25,14,43,7.30
2012,01,25,14,44,7.30
2012,01,25,14,45,7.30
2012,01,25,14,46,7.30
2012,01,25,14,47,7.30
2012,01,25,14,48,7.30
2012,01,25,14,49,7.30
2012,01,25,14,50,7.30
2012,01,25,14,51,7.30
2012,01,25,14,52,7.40
2012,01,25,14,53,7.40
2012,01,25,14,54,7.40
2012,01,25,14,55,7.40
2012,01,25,14,56,7.40
2012,01,25,14,57,7.40
2012,01,25,14,58,7.40
2012,01,25,14,59,7.40
2012,01,25,15,00,7.40
2012,01,25,15,01,7.40
2012,01,25,15,02,7.40
2012,01,25,15,03,7.40
2012,01,25,15,04,7.30
2012,01,25,15,05,7.30
2012,01,25,15,06,7.40
2012,01,25,15,07,7.40
2012,01,25,15,08,7.40
2012,01,25,15,09,7.40
2012,01,25,15,10,7.40
2012,01,25,15,11,7.40
2012,01,25,15,12,7.40
2012,01,25,15,13,7.40
2012,01,25,15,14,7.40
2012,01,25,15,15,7.40
2012,01,25,15,16,7.40
2012,01,25,15,17,7.40
2012,01,25,15,18,7.40
2012,01,25,15,19,7.40
2012,01,25,15,20,7.30
2012,01,25,15,21,7.30
2012,01,25,15,22,7.30
2012,01,25,15,23,7.30
2012,01,25,15,24,7.30
2012,01,25,15,25,7.30
2012,01,25,15,26,7.30
2012,01,25,15,27,7.30
2012,01,25,15,28,7.30
2012,01,25,15,29,7.30
2012,01,25,15,30,7.30
2012,01,25,15,31,7.30
2012,01,25,15,32,7.30
2012,01,25,15,33,7.30
2012,01,25,15,34,7.30
2012,01,25,15,35,7.30
2012,01,25,15,36,7.30
2012,01,25,15,37,7.30
2012,01,25,15,38,7.30
2012,01,25,15,39,7.30
2012,01,25,15,40,7.30
2012,01,25,15,41,7.30
2012,01,25,15,42,7.30
2012,01,25,15,43,7.30
2012,01,25,15,44,7.30
2012,01,25,15,45,7.30
2012,01,25,15,46,7.30
2012,01,25,15,47,7.30
2012,01,25,15,48,7.30
2012,01,25,15,49,7.30
2012,01,25,15,50,7.30
2012,01,25,15,51,7.30
2012,01,25,15,52,7.30
2012,01,25,15,53,7.30
2012,01,25,15,54,7.30
2012,01,25,15,55,7.30
2012,01,25,15,56,7.30
2012,01,25,15,57,7.30
2012,01,25,15,58,7.30
2012,01,25,15,59,7.20
2012,01,25,16,00,7.20
2012,01,25,16,01,7.20
2012,01,25,16,02,7.20
2012,01,25,16,03,7.20
2012,01,25,16,04,7.20
2012,01,25,16,05,7.20
2012,01,25,16,06,7.10
2012,01,25,16,07,7.10
2012,01,25,16,08,7.10
2012,01,25,16,09,7.10
2012,01,25,16,10,7.10
2012,01,25,16,11,7.10
2012,01,25,16,12,7.10
2012,01,25,16,13,7.10
2012,01,25,16,14,7.00
2012,01,25,16,15,7.00
2012,01,25,16,16,7.00
2012,01,25,16,17,7.00
2012,01,25,16,18,7.00
2012,01,25,16,19,7.00
2012,01,25,16,20,7.00
2012,01,25,16,21,7.00
2012,01,25,16,22,6.90
2012,01,25,16,23,6.90
2012,01,25,16,24,6.90
2012,01,25,16,25,6.90
2012,01,25,16,26,6.90
2012,01,25,16,27,6.90
2012,01,25,16,28,6.80
2012,01,25,16,29,6.80
2012,01,25,16,30,6.80
2012,01,25,16,31,6.80
2012,01,25,16,32,6.80
2012,01,25,16,33,6.80
2012,01,25,16,34,6.80
2012,01,25,16,35,6.80
2012,01,25,16,36,6.80
2012,01,25,16,37,6.80
2012,01,25,16,38,6.70
2012,01,25,16,39,6.70
2012,01,25,16,40,6.70
2012,01,25,16,41,6.70
2012,01,25,16,42,6.70
2012,01,25,16,43,6.70
2012,01,25,16,44,6.70
2012,01,25,16,45,6.70
2012,01,25,16,46,6.70
2012,01,25,16,47,6.60
2012,01,25,16,48,6.60
2012,01,25,16,49,6.60
2012,01,25,16,50,6.60
2012,01,25,16,51,6.50
2012,01,25,16,52,6.40
2012,01,25,16,53,6.40
2012,01,25,16,54,6.40
2012,01,25,16,55,6.40
2012,01,25,16,56,6.40
2012,01,25,16,57,6.40
2012,01,25,16,58,6.30
2012,01,25,16,59,6.30
2012,01,25,17,00,6.30
2012,01,25,17,01,6.30
2012,01,25,17,02,6.20
2012,01,25,17,03,6.20
2012,01,25,17,04,6.20
2012,01,25,17,05,6.20
2012,01,25,17,06,6.20
2012,01,25,17,07,6.20
2012,01,25,17,08,6.20
2012,01,25,17,09,6.20
2012,01,25,17,10,6.20
2012,01,25,17,11,6.10
2012,01,25,17,12,6.10
2012,01,25,17,13,6.10
2012,01,25,17,14,6.10
2012,01,25,17,15,6.10
2012,01,25,17,16,6.00
2012,01,25,17,17,6.00
2012,01,25,17,18,6.00
2012,01,25,17,19,6.00
2012,01,25,17,20,6.00
2012,01,25,17,21,6.00
2012,01,25,17,22,6.00
2012,01,25,17,23,5.90
2012,01,25,17,24,5.90
2012,01,25,17,25,5.90
2012,01,25,17,26,5.90
2012,01,25,17,27,5.80
2012,01,25,17,28,5.80
2012,01,25,17,29,5.80
2012,01,25,17,30,5.80
2012,01,25,17,31,5.70
2012,01,25,17,32,5.70
2012,01,25,17,33,5.70
2012,01,25,17,34,5.70
2012,01,25,17,35,5.70
2012,01,25,17,36,5.70
2012,01,25,17,37,5.70
2012,01,25,17,38,5.60
2012,01,25,17,39,5.60
2012,01,25,17,40,5.60
2012,01,25,17,41,5.60
2012,01,25,17,42,5.60
2012,01,25,17,43,5.60
2012,01,25,17,44,5.60
2012,01,25,17,45,5.60
2012,01,25,17,46,5.60
2012,01,25,17,47,5.60
2012,01,25,17,48,5.60
2012,01,25,17,49,5.60
2012,01,25,17,50,5.60
2012,01,25,17,51,5.60
2012,01,25,17,52,5.60
2012,01,25,17,53,5.60
2012,01,25,17,54,5.60
2012,01,25,17,55,5.60
2012,01,25,17,56,5.60
2012,01,25,17,57,5.50
2012,01,25,17,58,5.50
2012,01,25,17,59,5.50
2012,01,25,18,00,5.50
2012,01,25,18,01,5.40
2012,01,25,18,02,5.40
2012,01,25,18,03,5.40
2012,01,25,18,04,5.40
2012,01,25,18,05,5.40
2012,01,25,18,06,5.40